Weather observations for the past three days for
Wendover Airport
Metric (Imperial)
Date Time (mdt) Wind (kph) Vis. (km) Weather Sky Cond. Temperature (ºC) Relative Humidity Wind Chill (°C) Heat Index (°C) Pressure Precipitation (cm)
Air Dwpt 6 hour altimeter (cm) sea level (mb) 1 hr 3 hr 6 hr
Max. Min.
04 05:56 W 11 16.09 Fair CLR 18.3 -1.1 22.8 17.2 27% 75.84 1007.3
04 04:56 W 17 16.09 Fair CLR 20 -2.2 22% 75.82 1006.5
04 03:56 SW 24 16.09 Fair CLR 21.1 -2.2 21% 75.74 1005.6
04 02:56 SW 24 16.09 Fair CLR 21.1 -2.8 20% 75.72 1005.3
04 01:56 SW 22 16.09 Fair CLR 21.1 -2.2 21% 75.69 1005.0
04 00:56 SW 26 16.09 Fair CLR 21.7 -2.8 19% 75.67 1004.7
03 23:56 Calm 16.09 Fair CLR 21.1 -4.4 27.8 17.2 18% 75.67 1004.8
03 22:56 Vrbl 6 16.09 Fair CLR 19.4 -3.9 20% 75.67 1005.2
03 21:56 W 7 16.09 Fair CLR 21.1 -4.4 18% 75.67 1005.2
03 20:56 NW 11 16.09 Fair CLR 23.3 -5.6 14% 75.64 1005.0
03 19:56 N 6 16.09 Fair CLR 25.6 -6.7 11% 25 75.64 1005.3
03 18:56 NE 11 16.09 Fair CLR 27.2 -7.2 10% 26 75.69 1005.8
03 17:56 NE 13 16.09 Fair CLR 27.8 -6.7 28.3 22.8 10% 26 75.74 1006.3
03 16:56 E 17 16.09 Fair CLR 27.8 -5.6 11% 26 75.82 1007.1
03 15:56 NE 11 16.09 Fair CLR 27.2 -4.4 12% 26 75.9 1008.0
03 14:56 E 15 16.09 Fair CLR 26.7 -4.4 13% 26 75.97 1009.0
03 13:56 SE 7 16.09 Fair CLR 25.6 -5 13% 25 76.05 1010.1
03 12:56 E 15 16.09 Fair CLR 23.9 -2.8 17% 24 76.12 1011.2
03 11:56 E 13 16.09 Fair CLR 22.8 -3.3 22.8 13.3 17% 76.2 1012.2
03 10:56 E 9 16.09 Fair CLR 21.7 -3.3 19% 76.2 1012.3
03 09:56 E 7 16.09 Fair CLR 21.1 -3.9 18% 76.23 1012.5
03 08:56 Calm 16.09 Fair CLR 17.2 -2.8 26% 76.23 1013.1
03 07:56 Calm 16.09 Fair CLR 13.9 -2.8 32% 76.2 1012.8
03 06:56 E 9 16.09 Fair CLR 13.9 -2.8 32% 76.15 1012.0
03 05:56 NE 9 16.09 Fair CLR 15.6 -2.8 21.7 15.6 28% 76.12 1011.4
03 04:56 W 17 16.09 Fair CLR 16.7 -4.4 23% 76.12 1011.2
03 03:56 Calm 16.09 Fair CLR 17.8 -4.4 22% 76.1 1010.8
03 02:56 Calm 16.09 Fair CLR 18.9 -5.6 19% 76.1 1010.5
03 01:56 NW 9 16.09 Fair CLR 18.3 -5.6 19% 76.1 1010.6
03 00:56 Calm 16.09 Fair CLR 21.1 -6.1 16% 76.07 1010.0
02 23:56 NW 19 16.09 Fair CLR 21.7 -6.7 26.7 21.7 14% 76.05 1009.6
02 22:56 N 20 16.09 Fair CLR 22.2 -7.2 13% 76.02 1009.5
02 21:56 Vrbl 11 16.09 Fair CLR 22.8 -6.7 13% 76 1009.2
02 20:56 N 11 16.09 Fair CLR 23.3 -6.7 13% 75.95 1008.8
02 19:56 Calm 16.09 Fair CLR 24.4 -6.7 12% 24 75.95 1009.0
02 18:56 NW 20 16.09 Fair CLR 25.6 -7.2 11% 25 75.95 1009.2
02 17:56 W 26 16.09 Fair CLR 26.7 -7.8 28.9 25.6 10% 26 75.97 1009.2
02 16:56 W 26 16.09 Fair CLR 27.8 -7.8 9% 26 75.97 1009.0
02 15:56 W 24 G 33 16.09 Fair CLR 28.3 -7.2 9% 27 76 1009.1
02 14:56 W 19 G 33 16.09 Fair CLR 28.3 -7.8 9% 27 76.02 1009.5
02 13:56 W 7 16.09 Fair CLR 27.2 -7.8 9% 26 76.07 1010.2
02 12:56 Vrbl 9 16.09 Fair CLR 26.7 -7.8 10% 26 76.12 1011.1
02 11:56 W 22 16.09 Fair CLR 26.1 -7.8 26.1 14.4 10% 25 76.15 1011.2
02 10:56 SW 13 16.09 Fair CLR 25.6 -8.3 10% 25 76.12 1011.0
02 09:56 SW 24 16.09 Fair CLR 25 -8.9 10% 24 76.1 1010.4
02 08:56 SW 17 16.09 Fair CLR 22.2 -6.7 14% 76.1 1010.6
02 07:56 SW 24 16.09 Fair CLR 17.8 -6.1 19% 76.05 1010.2
02 06:56 W 9 16.09 Fair CLR 16.1 -4.4 24% 76.02 1009.6
02 05:56 S 20 16.09 Fair CLR 16.1 -4.4 21.7 16.1 24% 76 1009.3
02 04:56 S 22 16.09 Fair CLR 17.2 -4.4 23% 75.97 1008.7
02 03:56 S 26 16.09 Fair CLR 18.3 -4.4 21% 75.97 1008.8
02 02:56 S 17 16.09 Fair CLR 17.8 -5 21% 75.95 1009.1
02 01:56 S 13 16.09 Fair CLR 18.9 -3.9 21% 75.97 1009.4
02 00:56 Vrbl 6 16.09 Fair CLR 18.3 -3.3 23% 75.92 1009.0
01 23:56 S 13 16.09 Fair CLR 21.1 -3.3 30 20.6 19% 75.92 1008.9
01 22:56 SW 9 16.09 Fair CLR 22.2 0 23% 75.95 1009.0
01 21:56 S 13 16.09 Fair CLR 22.8 1.7 25% 75.92 1008.8
01 20:56 S 17 16.09 Fair CLR 25 1.1 21% 25 75.9 1008.2
01 19:56 S 20 16.09 Fair CLR 27.8 1.7 18% 27 75.87 1007.9
01 18:56 S 28 16.09 Fair CLR 29.4 3.3 19% 28 75.9 1008.0
01 17:56 S 30 G 35 16.09 Fair CLR 30 4.4 30 20.6 20% 28 75.92 1008.4
01 16:56 SE 17 G 31 16.09 Fair CLR 30 7.2 24% 28 76 1009.3
01 15:56 SE 7 16.09 Fair CLR 28.3 10.6 33% 27 76.05 1010.2
01 14:56 E 11 16.09 Fair CLR 25 11.1 42% 26 76.17 1012.4
01 13:56 SE 13 16.09 Fair CLR 23.3 10 43% 76.28 1013.7
01 12:56 E 11 16.09 Fair CLR 22.2 9.4 44% 76.35 1014.9
01 11:56 E 11 16.09 Fair CLR 20.6 10 20.6 13.9 51% 76.4 1015.7
01 10:56 E 13 16.09 Fair CLR 18.9 10.6 59% 76.4 1016.0
01 09:56 E 13 16.09 Fair CLR 17.8 10.6 63% 76.4 1016.0
01 08:56 NE 9 16.09 Fair CLR 16.7 10.6 67% 76.4 1016.0
01 07:56 NE 9 16.09 Fair CLR 15 10 72% 76.38 1015.7
01 06:56 Calm 16.09 Fair CLR 14.4 10 75% 76.35 1015.0
Date Time (mdt) Wind (kph) Vis. (km) Weather Sky Cond. Air Dwpt Max. Min. Relative Humidity Wind Chill (°C) Heat Index (°C) altimeter (cm) sea level (mb) 1 hr 3 hr 6 hr
6 hour
Temperature (ºC) Pressure Precipitation (cm)